Portada
METAR-TAF:

METAR-TAF

Aeropuertos :

Kédougou, Senegal

latitud: 12-34N, longitud: 012-13W, altitud: 178 m

Observación

El informe se hizo hace 45 minutos, a las 18:00 UTC
Viento 4 kt del oeste
Temperatura 28°C
Humedad 84%
Presión 1007 hPa
Visibilidad 10 km o más
Escasas nubes a una altura de 1300 ft

METAR: GOTK 151800Z 28004KT 9999 FEW013 28/25 Q1007

Hora: 18:45 (18:45 UTC)


TAF: falta

Observaciones y pronósticos meteorológicos de más de 4000 aeropuertos (mensajes METAR y TAF).

Los puntos amarillos y rojos representan las estaciones disponibles.

Ponga el ratón en el punto deseado para ver el nombre de la estación.

Haga clic para ver las observaciones y los pronósticos meteorológicos.

Para cambiar el mapa : haga clic en los botones verdes con una cruz de color negro para hacer un zoom, en el botón verde con un guión para alejar o en las flechas verdes para mapas adyacentes.


METAR-TAF: